SL-14 DEB, 45303

Orbit data source: Space-Track

SL-14 DEB, 45303 is space debris in LEO originally from a launch on Thu, 15 Aug 1991 UTC launched from the Plesetsk Missile And Space Complex (PKMTR). Debris objects in space refer to the collection of defunct objects orbiting the Earth. Examples of debris include non-operational satellites, rocket bodies, and fragments generated from explosions, collisions, or faulty payload assembly.

Loading next visibility...
Identifier
45303, 1991-056AR
Orbit
LEO
Country
Flag of CISCIS
Related business
Manufacturer
Unknown
Mission
Spacecraft
Bus & Motor
Unknown
Mass
Unknown
Launch date (UTC)
1991-08-15 (34 years ago)
Launch vehicle
Unknown
Launch site
Plesetsk Missile And Space Complex (PKMTR)
Object type
Payload
Rocket body
Debris
Shape & HBR
Unknown shape, 0.1 m
Radar Cross Section
Small (<0.1 m²)

Expand to show TLE details & history
Last TLE update: 20 hours ago

TLE from 20 hours ago
0 SL-14 DEB
1 45303U 91056AR  25287.14637147  .00028146  00000-0  15538-1 0  9997
2 45303  82.6050 187.5385 0088688 152.7410 207.8462 14.09289372281862
Epoch: 2025-10-14T03:30Z
TLE epoch observation values (Epoch: 2025-10-14T03:30:46.495Z)
Latitude
0.00002°
Longitude
111.90579°
Altitude
921.652 km
Speed
7.362 km/s
True Right ascension
12h 30m 09s
True Declination
0° 00' 00"
Sunlit
Object was in daylight at epoch
Visualization orbit readout
Latitude
Unknown
Longitude
Unknown
Altitude
Unknown
Speed
Unknown
Apparent Right ascension
Unknown
Apparent Declination
Unknown
Sunlit
N/A
Visualization observer readout
Local Sidereal Time
18:07:25
Azimuth
Unknown
Elevation
Unknown
Doppler factor
Unknown
Orbital elements
Apogee altitude
923.103 km
Perigee altitude
794.735 km
Semi-major axis
7,237.056 km
Eccentricity
0.00887
Inclination
82.605°
RAAN
187.5385°
Arg. of periapsis
152.741°
True anomaly
207.37611°
Mean anomaly
207.8462°
Eccentric anomaly
207.61069°
Mean motion
3.52533 °/min
Orbital period
102.12 mins
BSTAR
0.015538
Loading maneuver chart data...
Computing Atmospheric mass density...
Loading historical data...
Loading historical data...
Loading historical data...
Loading historical data...
Loading historical data...
Loading historical data...
Loading historical data...

Documentation

Showing up to 5 results
|